User: anonymous   Login
Location: Zagreb
(45.8000°N, 16.0000°E)
Time: 00:48:12
(UTC+01:00)
Language:

Vanguard 1 Rocket - Orbit

View from above orbital plane
View from above orbital plane
View from above satellite
View from above satellite

Ground track
Ground track

The orbit data is extracted from the following two-line orbital elements,

1    16U 58002A   20025.49785636 -.00000061 +00000-0 -77345-4 0  9998
2    16 034.2622 210.2495 2027728 350.8112 006.0110 10.48718533443727
Epoch (UTC): 25 January 2020 11:56:54
Eccentricity: 0.2027728
inclination: 34.2622°
perigee height: 650 km
apogee height: 4226 km
right ascension of ascending node: 210.2495°
argument of perigee: 350.8112°
revolutions per day: 10.48718533
mean anomaly at epoch: 6.0110°
orbit number at epoch: 44372

The dashed part of the orbit path shows where the satellite is in the earth's shadow,  

DLR